Regional Weather Roundup
Issued by NWS

Home | Current Version | Previous Version | Text Only | Print | Product List | Glossary On
Versions: 1 2 3 4 5 6 7 8 9 10 11 12 13 14 15 16 17 18 19 20 21 22 23 24 25 26 27 28 29 30 31 32 33 34 35 36 37 38 39 40 41 42 43 44 45 46 47 48 49 50
000
ASUS45 KSLC 021010
RWRUT

UTAH REGIONAL WEATHER ROUNDUP
NATIONAL WEATHER SERVICE SALT LAKE CITY UT
400 AM MDT THU JUL 02 2015

UTZ001>011-023>025-021100-

NORTHERN UTAH

CITY           SKY/WX    TMP DP  RH WIND       PRES   REMARKS
HILL AFB       MOCLDY    74  48  40 SE15      30.06F
LOGAN          CLEAR     62  52  69 E5        30.05S
OGDEN          MOCLDY    74  48  39 W8        30.04R
PROVO AIRPORT  MOCLDY    70  52  52 S3        30.07R
SALT LAKE CITY CLOUDY    77  51  40 SE8       30.01F
VERNAL         CLOUDY    72  45  37 W3        30.09R
WENDOVER       PTCLDY    84  46  26 NW14      30.05S
WEST JORDAN    CLEAR     73  48  40 CALM      30.06S

$$

UTZ012>022-026-027-021100-

SOUTHERN/CENTRAL UTAH

CITY           SKY/WX    TMP DP  RH WIND       PRES   REMARKS
BRYCE CANYON   CLOUDY    60  48  64 W7        30.33S
CEDAR CITY     CLOUDY    71  51  49 W3        30.19S
MILFORD        CLOUDY    75  52  44 S20       30.11R
MOAB/CYNLANDS  PTCLDY    81  50  33 W5        29.99R
PRICE          MOCLDY    70  41  34 N5        30.13S
ST GEORGE      PTSUNNY   82  63  51 SW7       29.97F
KANAB          CLOUDY    70  59  68 W3        30.20R

$$

REGIONAL REPORTS     COLORADO/ARIZONA

CITY           SKY/WX    TMP DP  RH WIND       PRES   REMARKS
CRAIG, CO      PTCLDY    52  47  83 CALM      30.17S
GRAND JUNCTION MOCLDY    71  50  47 CALM      30.03R
RIFLE          CLOUDY    65  49  56 E3        30.12S
MONTROSE       CLOUDY    74  49  41 E9        30.13R
CORTEZ         MOCLDY    71  54  54 NE8       30.22R
PAGE, AZ       CLOUDY    81  54  39 S13G23    30.05R
GRAND CANYON     N/A    N/A N/A N/A MISG      30.27F
KINGMAN        LGT RAIN  74  63  68 SE8       30.05S
FLAGSTAFF      CLOUDY    59  57  93 CALM      30.31F

$$

REGIONAL REPORTS    NEVADA/IDAHO/WYOMING

CITY           SKY/WX    TMP DP  RH WIND       PRES   REMARKS
LAS VEGAS, NV  TSTM      83  65  54 W20       29.88S
ELY            CLOUDY    64  51  62 SW9       30.27F
ELKO           MOCLDY    70  50  49 N5        30.16S
POCATELLO, ID  CLEAR     65  51  60 SW8       30.05S
BURLEY         CLEAR     65  51  60 E3        30.05R
EVANSTON, WY   MOCLDY    60  42  51 SE8       30.28S
ROCK SPRINGS   PTCLDY    62  49  62 S7        30.24S

$$


USA.gov is the U.S. government's official web portal to all federal, state and local government web resources and services.